Flag Weather past 2 weeks in Pasadena, Texas, U.S.A.

Now
61 °F

Clear.


Feels Like: 61 °F
Forecast: 60 / 75 °F
Wind: 3 mph from South

Location: Houston / Ellington

Current Time: Nov 29, 2014 at 12:26:08 AM

Latest Report: Nov 28, 2014 at 11:50 PM


Visibility: 10 mi

Pressure: 30.16 "Hg

Humidity: 94%

Dew point: 59 °F

Location of PasadenaLocation

Historic Weather in Pasadena — Graph

°F

Pasadena temperature yesterday

Maximum temperature yesterday: 70 °F (at 12:50 PM)
Minimum temperature yesterday: 46 °F (at 4:50 AM)
Average temperature yesterday: 60 °F

Past Weeks' High & Low Weather Summary

 TemperatureHumidityPressure
High79 °F (Nov 23, 3:50 PM)100% (Nov 15, 8:50 PM)30.56 "Hg (Nov 15, 8:50 PM)
Low34 °F (Nov 19, 3:50 AM)23% (Nov 18, 1:50 PM)29.56 "Hg (Nov 23, 2:50 PM)
Average56 °F67%30.19 "Hg
* Reported Nov 13 10:50 PM — Nov 28 10:50 PM, Pasadena, Weather by CustomWeather, © 2014

Note: Actual official high and low records may vary slightly from our data, if they occured in-between our weather recording intervals... More about our weather records

Advertising

Pasadena weather history for previous 24 hours

 ConditionsComfort  
Time TempWeatherWind HumidityBarometerVisibility
10:50 PM
Nov 28
61 °FClear.3 mph94%30.16 "Hg10 mi
9:50 PM63 °FClear.5 mph88%30.17 "Hg10 mi
8:50 PM63 °FPassing clouds.7 mph88%30.18 "Hg10 mi
7:50 PM64 °FPassing clouds.6 mph83%30.19 "Hg10 mi
6:50 PM64 °FPassing clouds.5 mph83%30.19 "Hg10 mi
5:50 PM66 °FPassing clouds.6 mph68%30.20 "Hg10 mi
4:50 PM68 °FPartly sunny.8 mph64%30.20 "Hg10 mi
3:50 PM70 °FPartly sunny.12 mph57%30.22 "Hg10 mi
2:50 PM70 °FPartly sunny.12 mph57%30.22 "Hg10 mi
1:50 PM70 °FPartly sunny.9 mph60%30.23 "Hg10 mi
12:50 PM70 °FBroken clouds.12 mph60%30.26 "Hg10 mi
11:50 AM68 °FScattered clouds.8 mph64%30.29 "Hg10 mi
10:50 AM68 °FPassing clouds.10 mph64%30.34 "Hg10 mi
9:50 AM57 °FSunny.7 mph67%30.37 "Hg10 mi
8:50 AM54 °FSunny.5 mph77%30.37 "Hg10 mi
7:50 AM54 °FSunny.No wind77%30.37 "Hg10 mi
6:50 AM48 °FClear.2 mph94%30.37 "Hg10 mi
5:50 AM48 °FClear.No wind87%30.38 "Hg10 mi
4:50 AM46 °FClear.No wind71%30.38 "Hg10 mi
2:50 AM48 °FClear.No wind66%30.39 "Hg10 mi
1:50 AM48 °FClear.No wind66%30.39 "Hg10 mi
12:50 AM48 °FClear.No wind66%30.40 "Hg10 mi
Weather by CustomWeather, © 2014

See weather overviewHow to use our weather pages